Pittsburgh, PA

4:08 PM EST on December 13, 2017 (GMT -0500)
Pittsburgh International

Weather History for KPIT - July, 2013

Change the Weather History Date:

Friday, July 12, 2013

  Actual Average Record
Temperature  
Mean Temperature 69 °F 73 °F  
Max Temperature 76 °F 83 °F 98 °F (1936)
Min Temperature 61 °F 63 °F 49 °F (1978)
Degree Days  
Heating Degree Days 0 0  
Month to date heating degree days 0 0  
Since 1 June heating degree days 16 38  
Since 1 July heating degree days 0 0  
Cooling Degree Days 4 8  
Month to date cooling degree days 116 93  
Year to date cooling degree days 374 295  
Since 1 June cooling degree days 270 243  
Growing Degree Days 18 (Base 50)    
Moisture  
Dew Point 59 °F    
Average Humidity 69    
Maximum Humidity 84    
Minimum Humidity 54    
Precipitation  
Precipitation T in 0.12 in 1.94 in (1964)
Month to date precipitation 3.95 1.53  
Year to date precipitation 21.77 20.93  
Snow  
Snow 0.00 in 0.00 in 0.00 in (2002)
Month to date snowfall 0.0 0.0  
Since 1 July snowfall 0.0 0.0  
Snow Depth 0.00 in    
Sea Level Pressure  
Sea Level Pressure 30.08 in    
Wind  
Wind Speed 6 mph (NNE)    
Max Wind Speed 12 mph    
Max Gust Speed 15 mph    
Visibility 10 miles    
Events Rain    
T = Trace of Precipitation, MM = Missing Value Source: NWS Daily Summary

Daily Weather History Graph

Daily Weather History Graph

Search for Another Location

Airport or City:

Trip Planner

Search our weather history database for the weather conditions in past years. The results will help you decide how hot, cold, wet, or windy it might be!

Date:

Astronomy

Jul. 12, 2013 Rise Set
Actual Time 6:01 AM EDT 8:51 PM EDT
Civil Twilight 5:28 AM EDT 9:23 PM EDT
Nautical Twilight 4:47 AM EDT 10:04 PM EDT
Astronomical Twilight 4:00 AM EDT 10:51 PM EDT
Moon 10:17 AM EDT (7/12) 11:00 PM EDT (7/12)
Length of Visible Light 15h 55m
Length of Day
14h 50m
Waxing Crescent, 17% of the Moon is Illuminated
Jul 12
Waxing Crescent
Jul 15
First Quarter
Jul 22
Full
Jul 29
Last Quarter
Aug 6
New

Hourly Weather History & Observations

Time (EDT) Temp. Dew Point Humidity Pressure Visibility Wind Dir Wind Speed Gust Speed Precip Events Conditions
12:51 AM 64.0 °F 55.0 °F 73% 30.02 in 10.0 mi North 10.4 mph - N/A   Partly Cloudy
1:51 AM 63.0 °F 55.0 °F 75% 30.03 in 10.0 mi North 10.4 mph - N/A   Clear
2:51 AM 62.1 °F 55.9 °F 80% 30.03 in 10.0 mi North 8.1 mph - N/A   Partly Cloudy
3:51 AM 61.0 °F 55.9 °F 83% 30.03 in 10.0 mi North 8.1 mph - N/A   Partly Cloudy
4:51 AM 61.0 °F 55.9 °F 83% 30.03 in 10.0 mi North 6.9 mph - N/A   Scattered Clouds
5:51 AM 61.0 °F 55.9 °F 83% 30.04 in 10.0 mi NNE 5.8 mph - N/A   Scattered Clouds
6:51 AM 62.1 °F 55.9 °F 80% 30.05 in 10.0 mi North 5.8 mph - N/A   Scattered Clouds
7:51 AM 63.0 °F 55.9 °F 78% 30.07 in 10.0 mi North 5.8 mph - N/A   Partly Cloudy
8:51 AM 66.0 °F 57.9 °F 75% 30.09 in 10.0 mi ENE 6.9 mph - N/A   Scattered Clouds
9:51 AM 69.1 °F 59.0 °F 70% 30.09 in 10.0 mi NE 6.9 mph - N/A   Scattered Clouds
10:51 AM 70.0 °F 59.0 °F 68% 30.08 in 10.0 mi ENE 5.8 mph - N/A   Mostly Cloudy
11:51 AM 72.0 °F 60.1 °F 66% 30.09 in 10.0 mi East 3.5 mph - N/A   Mostly Cloudy
12:51 PM 73.9 °F 60.1 °F 62% 30.09 in 10.0 mi Variable 5.8 mph - N/A   Overcast
1:51 PM 75.0 °F 59.0 °F 57% 30.09 in 10.0 mi NNE 6.9 mph - N/A   Overcast
2:51 PM 75.0 °F 57.9 °F 55% 30.09 in 10.0 mi NNE 8.1 mph - N/A   Overcast
3:51 PM 73.9 °F 57.9 °F 57% 30.08 in 10.0 mi East 5.8 mph - N/A   Overcast
4:51 PM 72.0 °F 62.1 °F 71% 30.09 in 9.0 mi East 4.6 mph - 0.00 in Rain Light Rain
5:51 PM 71.1 °F 63.0 °F 75% 30.09 in 10.0 mi SSW 3.5 mph - 0.00 in   Overcast
6:51 PM 71.1 °F 63.0 °F 75% 30.09 in 10.0 mi Calm Calm - N/A   Overcast
7:51 PM 70.0 °F 62.1 °F 76% 30.10 in 10.0 mi NW 4.6 mph - N/A   Overcast
8:51 PM 71.1 °F 61.0 °F 70% 30.11 in 10.0 mi NNE 3.5 mph - N/A   Overcast
9:51 PM 70.0 °F 62.1 °F 76% 30.11 in 10.0 mi Calm Calm - N/A   Overcast
10:51 PM 70.0 °F 61.0 °F 73% 30.12 in 10.0 mi NNE 5.8 mph - N/A   Mostly Cloudy
11:51 PM 68.0 °F 60.1 °F 76% 30.14 in 10.0 mi NNE 4.6 mph - N/A   Mostly Cloudy